EW9945 Weather Reports


Display with metric or nautical units.
time (UTC)temp
F
wind
direction
speed
MPH
gust
MPH
rain 1hr
in
rain 24hr
in
rain mn
in
humidity
%
barometer
mb
20260508094506 35 292 0.0 0.0 0.01 0.11 0.00 91 1012.0
20260508093006 36 292 0.0 0.0 0.01 0.11 0.00 92 1012.0
20260508091503 35 292 0.0 0.0 0.01 0.11 0.00 91 1012.0
20260508090002 36 292 0.0 0.0 0.01 0.11 0.11 91 1012.1
20260508084502 36 292 0.0 0.0 0.00 0.10 0.10 91 1012.1
20260508083001 36 292 0.0 0.0 0.00 0.10 0.10 92 1012.1
20260508081501 36 292 0.0 0.0 0.00 0.10 0.10 91 1012.1
20260508080110 36 292 0.0 0.0 0.00 0.10 0.10 91 1012.0
20260508074600 37 292 0.0 0.0 0.00 0.10 0.10 91 1012.1
20260508073100 37 292 0.0 0.0 0.00 0.10 0.10 91 1012.1
20260508071603 37 292 0.0 0.0 0.00 0.10 0.10 91 1011.9
20260508070142 36 292 0.0 0.0 0.00 0.10 0.10 91 1011.9
20260508064613 37 292 0.0 0.0 0.00 0.10 0.10 91 1012.1
20260508063101 37 292 0.0 0.0 0.00 0.10 0.10 91 1012.1
20260508061605 38 292 0.0 0.0 0.00 0.10 0.10 90 1012.3
20260508060058 38 292 0.0 0.0 0.00 0.10 0.10 90 1012.2
20260508054558 39 292 0.0 0.0 0.00 0.10 0.10 90 1012.1
20260508053106 39 292 0.0 0.0 0.00 0.10 0.10 90 1012.1
20260508051558 39 292 0.0 0.0 0.00 0.10 0.10 89 1012.1
20260508044557 40 292 0.0 0.0 0.00 0.10 0.10 90 1012.0
20260508043104 40 292 0.0 0.0 0.00 0.10 0.10 89 1011.8
20260508041558 41 292 0.0 0.0 0.00 0.10 0.10 90 1011.8
20260508040057 41 292 0.0 0.0 0.00 0.10 0.10 89 1011.7
20260508034557 41 292 0.0 0.0 0.00 0.10 0.10 88 1011.6
20260508033056 42 292 0.0 0.0 0.01 0.10 0.10 88 1011.7
20260508031559 42 292 0.0 0.0 0.01 0.10 0.10 88 1011.7
20260508030101 42 292 0.0 0.0 0.04 0.10 0.10 88 1011.8
20260508024559 42 298 0.0 0.0 0.06 0.10 0.10 88 1011.7
20260508023054 43 301 0.0 1.0 0.08 0.09 0.09 86 1012.1
20260508021552 43 302 0.0 9.0 0.08 0.09 0.09 85 1012.0
20260508020052 43 276 0.0 2.0 0.06 0.07 0.07 84 1011.8
20260508014553 43 248 7.0 13.0 0.03 0.04 0.04 82 1011.6
20260508013103 47 307 13.0 22.0 0.00 0.01 0.01 69 1011.1
20260508011553 50 360 0.0 0.0 0.00 0.01 0.01 63 1010.1
20260508010052 50 360 0.0 0.0 0.00 0.01 0.01 56 1009.7
20260508004530 50 360 0.0 0.0 0.00 0.01 0.01 55 1009.6
20260508003030 51 360 0.0 0.0 0.00 0.01 0.01 58 1009.5
20260508000001 51 360 0.0 1.0 0.00 0.01 0.01 54 1009.4
20260507234500 51 360 0.0 3.0 0.00 0.01 0.01 51 1009.3
20260507233100 52 355 3.0 8.0 0.00 0.01 0.01 50 1009.0
20260507233001 52 355 4.0 8.0 0.00 0.01 0.01 50 1009.0
20260507230112 52 360 0.0 9.0 0.00 0.01 0.01 49 1009.0
20260507224601 53 349 4.0 10.0 0.00 0.01 0.01 48 1009.0
20260507223059 53 11 0.0 5.0 0.00 0.01 0.01 49 1009.0
20260507221700 54 337 0.0 5.0 0.00 0.01 0.01 47 1009.0
20260507220100 53 315 0.0 11.0 0.00 0.01 0.01 47 1009.0
20260507214559 54 360 1.0 8.0 0.00 0.01 0.01 47 1009.0
20260507213106 55 330 6.0 9.0 0.00 0.01 0.01 45 1009.0
20260507211659 55 5 0.0 7.0 0.00 0.01 0.01 46 1008.9
20260507210059 55 360 4.0 7.0 0.00 0.01 0.01 45 1008.9
20260507204602 55 309 4.0 9.0 0.00 0.01 0.01 42 1008.9
20260507203057 56 9 0.0 7.0 0.00 0.01 0.01 44 1009.0
20260507201656 54 355 3.0 9.0 0.00 0.01 0.01 46 1009.1
20260507200057 54 333 8.0 16.0 0.00 0.01 0.01 45 1009.3
20260507194602 55 315 4.0 10.0 0.00 0.01 0.01 42 1009.3
20260507193055 55 339 5.0 10.0 0.00 0.01 0.01 44 1009.4
20260507191655 54 355 6.0 11.0 0.00 0.01 0.01 44 1009.6
20260507190052 55 334 6.0 12.0 0.00 0.01 0.01 44 1009.5
20260507184558 54 329 5.0 12.0 0.00 0.01 0.01 46 1009.7
20260507183049 55 311 6.0 14.0 0.00 0.01 0.01 44 1009.9
20260507181650 57 302 7.0 14.0 0.00 0.01 0.01 41 1010.0
20260507180046 54 312 1.0 13.0 0.00 0.04 0.01 45 1010.1
20260507174547 54 297 4.0 12.0 0.00 0.04 0.01 43 1010.2
20260507173044 54 291 7.0 14.0 0.00 0.04 0.01 42 1010.4
20260507171643 55 307 8.0 14.0 0.00 0.04 0.01 43 1010.6
20260507170042 52 298 5.0 12.0 0.00 0.12 0.01 45 1010.7
20260507164555 53 330 8.0 14.0 0.00 0.12 0.01 43 1010.8
20260507163039 53 319 8.0 12.0 0.00 0.12 0.01 46 1011.0
20260507161638 51 317 5.0 11.0 0.00 0.12 0.01 48 1011.3
20260507160038 52 294 8.0 14.0 0.00 0.12 0.01 46 1011.3
20260507154537 54 306 8.0 17.0 0.00 0.12 0.01 46 1011.3
20260507153032 52 304 2.0 13.0 0.00 0.12 0.01 49 1011.5
20260507151630 51 323 3.0 12.0 0.00 0.12 0.01 47 1011.6
20260507150029 51 257 0.0 5.0 0.00 0.12 0.01 54 1011.9
20260507144528 51 317 3.0 10.0 0.00 0.12 0.01 51 1011.9
20260507143043 50 297 3.0 16.0 0.00 0.12 0.01 55 1012.2
20260507141626 50 309 4.0 8.0 0.00 0.12 0.01 55 1012.2
20260507140025 50 275 0.0 6.0 0.00 0.14 0.01 59 1012.2
20260507134523 50 227 2.0 7.0 0.00 0.14 0.01 60 1012.3
20260507133021 50 295 2.0 5.0 0.00 0.14 0.01 64 1012.5
20260507131619 48 302 0.0 4.0 0.00 0.14 0.01 70 1012.6
20260507130031 47 301 1.0 5.0 0.00 0.22 0.01 68 1012.5
20260507124518 47 295 0.0 4.0 0.00 0.22 0.01 72 1012.4
20260507123015 47 225 0.0 0.0 0.00 0.22 0.01 78 1012.5
20260507121612 45 221 0.0 0.0 0.01 0.22 0.01 79 1012.6
20260507120008 44 220 0.0 0.0 0.01 0.28 0.01 82 1012.6
20260507114503 42 220 0.0 0.0 0.01 0.28 0.01 86 1012.4
20260507113101 41 220 0.0 0.0 0.01 0.28 0.01 87 1012.5
20260507111558 39 220 0.0 0.0 0.00 0.27 0.00 92 1012.7
20260507110056 37 220 0.0 0.0 0.00 0.30 0.00 92 1012.5
20260507104558 36 220 0.0 0.0 0.00 0.30 0.00 91 1012.4
20260507103052 36 220 0.0 0.0 0.00 0.30 0.00 91 1012.2
20260507101551 36 220 0.0 0.0 0.00 0.30 0.00 91 1012.0
20260507100056 36 220 0.0 0.0 0.00 0.35 0.00 91 1012.0